Time,TemperatureF,DewpointF,PressureIn,WindDirection,WindDirectionDegrees,WindSpeedMPH,WindSpeedGustMPH,Humidity,HourlyPrecipIn,Conditions,Clouds,dailyrainin,SoftwareType,DateUTC
2013-02-10 00:00:00,63.9,55.4,30.18,ENE,65,1.0,2.0,74,0.00,,,0.00,Wunderground v.1.13,2013-02-10 05:00:00,
2013-02-10 00:01:00,63.9,55.4,30.18,ENE,65,0.0,2.0,74,0.00,,,0.00,Wunderground v.1.13,2013-02-10 05:01:00,
2013-02-10 00:05:00,63.9,55.4,30.18,NE,40,3.0,3.0,74,0.00,,,0.00,Wunderground v.1.13,2013-02-10 05:05:00,
2013-02-10 00:11:00,63.7,55.6,30.18,SE,126,6.0,6.0,75,0.00,,,0.00,Wunderground v.1.13,2013-02-10 05:11:00,
2013-02-10 00:17:00,63.7,55.6,30.18,ENE,63,3.0,3.0,75,0.00,,,0.00,Wunderground v.1.13,2013-02-10 05:17:00,
2013-02-10 00:22:00,63.6,55.5,30.18,East,99,0.0,4.0,75,0.00,,,0.00,Wunderground v.1.13,2013-02-10 05:22:00,
2013-02-10 00:28:00,63.5,55.8,30.17,ENE,57,0.0,2.0,76,0.00,,,0.00,Wunderground v.1.13,2013-02-10 05:28:00,
2013-02-10 00:33:00,63.4,55.3,30.17,ENE,76,0.0,1.0,75,0.00,,,0.00,Wunderground v.1.13,2013-02-10 05:33:00,
2013-02-10 00:39:00,63.2,55.1,30.17,ENE,61,0.0,5.0,75,0.00,,,0.00,Wunderground v.1.13,2013-02-10 05:39:00,
2013-02-10 00:44:00,63.1,55.0,30.17,East,80,0.0,2.0,75,0.00,,,0.00,Wunderground v.1.13,2013-02-10 05:44:00,
2013-02-10 00:50:00,63.0,55.3,30.17,NE,55,2.0,2.0,76,0.00,,,0.00,Wunderground v.1.13,2013-02-10 05:50:00,
2013-02-10 00:56:00,62.9,55.2,30.17,NE,52,1.0,3.0,76,0.00,,,0.00,Wunderground v.1.13,2013-02-10 05:56:00,
2013-02-10 01:02:00,62.8,55.1,30.17,ENE,70,3.0,5.0,76,0.00,,,0.00,Wunderground v.1.13,2013-02-10 06:02:00,
2013-02-10 01:08:00,62.7,55.0,30.16,NE,48,0.0,5.0,76,0.00,,,0.00,Wunderground v.1.13,2013-02-10 06:08:00,
2013-02-10 01:14:00,62.7,55.0,30.16,East,83,4.0,6.0,76,0.00,,,0.00,Wunderground v.1.13,2013-02-10 06:14:00,
2013-02-10 01:20:00,62.6,55.3,30.17,ENE,76,1.0,2.0,77,0.00,,,0.00,Wunderground v.1.13,2013-02-10 06:20:00,
2013-02-10 01:25:00,62.5,55.2,30.17,NE,46,0.0,2.0,77,0.00,,,0.00,Wunderground v.1.13,2013-02-10 06:25:00,
2013-02-10 01:31:00,62.4,55.1,30.17,ENE,76,3.0,3.0,77,0.00,,,0.00,Wunderground v.1.13,2013-02-10 06:31:00,
2013-02-10 01:36:00,62.4,55.4,30.16,NE,49,7.0,7.0,78,0.00,,,0.00,Wunderground v.1.13,2013-02-10 06:36:00,
2013-02-10 01:42:00,62.4,55.4,30.17,NE,47,1.0,4.0,78,0.00,,,0.00,Wunderground v.1.13,2013-02-10 06:42:00,
2013-02-10 01:47:00,62.3,55.4,30.17,ENE,63,2.0,3.0,78,0.00,,,0.00,Wunderground v.1.13,2013-02-10 06:47:00,
2013-02-10 01:52:00,62.3,55.4,30.16,East,94,2.0,6.0,78,0.00,,,0.00,Wunderground v.1.13,2013-02-10 06:52:00,
2013-02-10 01:58:00,62.3,55.7,30.16,ENE,75,1.0,4.0,79,0.00,,,0.00,Wunderground v.1.13,2013-02-10 06:58:00,
2013-02-10 02:03:00,62.3,55.7,30.16,East,101,1.0,6.0,79,0.00,,,0.00,Wunderground v.1.13,2013-02-10 07:03:00,
2013-02-10 02:08:00,62.3,55.7,30.16,ESE,107,2.0,7.0,79,0.00,,,0.00,Wunderground v.1.13,2013-02-10 07:08:00,
2013-02-10 02:13:00,62.3,55.7,30.16,ESE,103,5.0,5.0,79,0.00,,,0.00,Wunderground v.1.13,2013-02-10 07:13:00,
2013-02-10 02:18:00,62.4,55.8,30.16,NE,52,2.0,4.0,79,0.00,,,0.00,Wunderground v.1.13,2013-02-10 07:18:00,
2013-02-10 02:23:00,62.4,55.8,30.16,ENE,58,2.0,7.0,79,0.00,,,0.00,Wunderground v.1.13,2013-02-10 07:23:00,
2013-02-10 02:28:00,62.3,56.0,30.16,ENE,67,3.0,6.0,80,0.00,,,0.00,Wunderground v.1.13,2013-02-10 07:28:00,
2013-02-10 02:33:00,62.4,56.1,30.16,East,84,0.0,6.0,80,0.00,,,0.00,Wunderground v.1.13,2013-02-10 07:33:00,
2013-02-10 02:38:00,62.5,56.2,30.16,East,90,3.0,5.0,80,0.00,,,0.00,Wunderground v.1.13,2013-02-10 07:38:00,
2013-02-10 02:43:00,62.4,56.1,30.15,ENE,77,4.0,7.0,80,0.00,,,0.00,Wunderground v.1.13,2013-02-10 07:43:00,
2013-02-10 02:49:00,62.4,56.1,30.15,ENE,70,0.0,1.0,80,0.00,,,0.00,Wunderground v.1.13,2013-02-10 07:49:00,
2013-02-10 02:54:00,62.3,56.0,30.15,East,88,0.0,3.0,80,0.00,,,0.00,Wunderground v.1.13,2013-02-10 07:54:00,
2013-02-10 02:59:00,62.3,56.4,30.15,ENE,78,1.0,5.0,81,0.00,,,0.00,Wunderground v.1.13,2013-02-10 07:59:00,
2013-02-10 03:04:00,62.3,56.4,30.15,ENE,68,0.0,4.0,81,0.00,,,0.00,Wunderground v.1.13,2013-02-10 08:04:00,
2013-02-10 03:10:00,62.3,56.4,30.15,ESE,114,2.0,2.0,81,0.00,,,0.00,Wunderground v.1.13,2013-02-10 08:10:00,
2013-02-10 03:15:00,62.3,56.4,30.15,East,83,1.0,2.0,81,0.00,,,0.00,Wunderground v.1.13,2013-02-10 08:15:00,
2013-02-10 03:20:00,62.4,56.8,30.15,ENE,76,2.0,2.0,82,0.00,,,0.00,Wunderground v.1.13,2013-02-10 08:20:00,
2013-02-10 03:25:00,62.4,56.8,30.15,ENE,76,0.0,2.0,82,0.00,,,0.00,Wunderground v.1.13,2013-02-10 08:25:00,
2013-02-10 03:30:00,62.5,56.9,30.15,NE,44,0.0,1.0,82,0.00,,,0.00,Wunderground v.1.13,2013-02-10 08:30:00,
2013-02-10 03:35:00,62.6,57.0,30.16,ENE,60,0.0,1.0,82,0.00,,,0.00,Wunderground v.1.13,2013-02-10 08:35:00,
2013-02-10 03:40:00,62.7,57.1,30.16,East,92,3.0,3.0,82,0.00,,,0.00,Wunderground v.1.13,2013-02-10 08:40:00,
2013-02-10 03:45:00,62.7,57.1,30.16,ENE,59,1.0,2.0,82,0.00,,,0.00,Wunderground v.1.13,2013-02-10 08:45:00,
2013-02-10 03:51:00,62.8,57.2,30.16,NE,45,0.0,3.0,82,0.00,,,0.00,Wunderground v.1.13,2013-02-10 08:51:00,
2013-02-10 03:56:00,62.8,57.2,30.16,NE,53,5.0,5.0,82,0.00,,,0.00,Wunderground v.1.13,2013-02-10 08:56:00,
2013-02-10 04:01:00,62.8,57.2,30.16,ENE,78,0.0,4.0,82,0.00,,,0.00,Wunderground v.1.13,2013-02-10 09:01:00,
2013-02-10 04:06:00,62.7,57.1,30.16,ENE,78,3.0,3.0,82,0.00,,,0.00,Wunderground v.1.13,2013-02-10 09:06:00,
2013-02-10 04:11:00,62.7,57.1,30.16,ENE,77,3.0,4.0,82,0.00,,,0.00,Wunderground v.1.13,2013-02-10 09:11:00,
2013-02-10 04:16:00,62.7,57.1,30.16,ENE,72,0.0,4.0,82,0.00,,,0.00,Wunderground v.1.13,2013-02-10 09:16:00,
2013-02-10 04:21:00,62.7,57.1,30.16,ESE,102,0.0,6.0,82,0.00,,,0.00,Wunderground v.1.13,2013-02-10 09:21:00,
2013-02-10 04:26:00,62.7,57.1,30.16,ENE,78,0.0,2.0,82,0.00,,,0.00,Wunderground v.1.13,2013-02-10 09:26:00,
2013-02-10 04:32:00,62.6,57.0,30.16,East,87,6.0,6.0,82,0.00,,,0.00,Wunderground v.1.13,2013-02-10 09:32:00,
2013-02-10 04:37:00,62.6,57.0,30.16,ENE,70,0.0,1.0,82,0.00,,,0.00,Wunderground v.1.13,2013-02-10 09:37:00,
2013-02-10 04:42:00,62.6,57.0,30.16,ENE,77,0.0,4.0,82,0.00,,,0.00,Wunderground v.1.13,2013-02-10 09:42:00,
2013-02-10 04:47:00,62.7,57.1,30.16,East,79,0.0,1.0,82,0.00,,,0.00,Wunderground v.1.13,2013-02-10 09:47:00,
2013-02-10 04:52:00,62.6,57.0,30.16,ENE,63,0.0,1.0,82,0.00,,,0.00,Wunderground v.1.13,2013-02-10 09:52:00,
2013-02-10 04:57:00,62.6,57.0,30.16,ENE,63,1.0,2.0,82,0.00,,,0.00,Wunderground v.1.13,2013-02-10 09:57:00,
2013-02-10 05:02:00,62.6,57.0,30.16,ENE,61,2.0,6.0,82,0.00,,,0.00,Wunderground v.1.13,2013-02-10 10:02:00,
2013-02-10 05:08:00,62.7,57.1,30.16,ENE,72,2.0,4.0,82,0.00,,,0.00,Wunderground v.1.13,2013-02-10 10:08:00,
2013-02-10 05:13:00,62.7,57.1,30.16,East,79,3.0,4.0,82,0.00,,,0.00,Wunderground v.1.13,2013-02-10 10:13:00,
2013-02-10 05:18:00,62.6,57.0,30.16,East,80,0.0,5.0,82,0.00,,,0.00,Wunderground v.1.13,2013-02-10 10:18:00,
2013-02-10 05:23:00,62.6,57.0,30.16,East,80,2.0,4.0,82,0.00,,,0.00,Wunderground v.1.13,2013-02-10 10:23:00,
2013-02-10 05:28:00,62.5,56.9,30.16,East,80,2.0,2.0,82,0.00,,,0.00,Wunderground v.1.13,2013-02-10 10:28:00,
2013-02-10 05:33:00,62.5,56.9,30.16,ENE,69,0.0,4.0,82,0.00,,,0.00,Wunderground v.1.13,2013-02-10 10:33:00,
2013-02-10 05:38:00,62.4,57.2,30.16,ENE,69,0.0,1.0,83,0.00,,,0.00,Wunderground v.1.13,2013-02-10 10:38:00,
2013-02-10 05:43:00,62.3,57.1,30.16,SE,125,1.0,4.0,83,0.00,,,0.00,Wunderground v.1.13,2013-02-10 10:43:00,
2013-02-10 05:48:00,62.3,57.1,30.16,NE,51,4.0,4.0,83,0.00,,,0.00,Wunderground v.1.13,2013-02-10 10:48:00,
2013-02-10 05:53:00,62.3,57.1,30.16,ENE,63,0.0,4.0,83,0.00,,,0.00,Wunderground v.1.13,2013-02-10 10:53:00,
2013-02-10 05:58:00,62.4,57.2,30.16,ENE,66,1.0,3.0,83,0.00,,,0.00,Wunderground v.1.13,2013-02-10 10:58:00,
2013-02-10 06:04:00,62.4,57.2,30.16,ENE,60,0.0,5.0,83,0.00,,,0.00,Wunderground v.1.13,2013-02-10 11:04:00,
2013-02-10 06:09:00,62.5,57.3,30.16,NNE,32,0.0,2.0,83,0.00,,,0.00,Wunderground v.1.13,2013-02-10 11:09:00,
2013-02-10 06:14:00,62.5,57.3,30.16,ENE,77,0.0,5.0,83,0.00,,,0.00,Wunderground v.1.13,2013-02-10 11:14:00,
2013-02-10 06:19:00,62.5,57.3,30.16,ENE,71,3.0,3.0,83,0.00,,,0.00,Wunderground v.1.13,2013-02-10 11:19:00,
2013-02-10 06:24:00,62.5,57.3,30.16,NE,48,0.0,1.0,83,0.00,,,0.00,Wunderground v.1.13,2013-02-10 11:24:00,
2013-02-10 06:29:00,62.5,57.3,30.17,NE,48,0.0,0.0,83,0.00,,,0.00,Wunderground v.1.13,2013-02-10 11:29:00,
2013-02-10 06:34:00,62.6,57.4,30.17,NE,51,0.0,3.0,83,0.00,,,0.00,Wunderground v.1.13,2013-02-10 11:34:00,
2013-02-10 06:39:00,62.6,57.4,30.17,ENE,68,0.0,1.0,83,0.00,,,0.00,Wunderground v.1.13,2013-02-10 11:39:00,
2013-02-10 06:45:00,62.7,57.5,30.18,ENE,73,0.0,0.0,83,0.00,,,0.00,Wunderground v.1.13,2013-02-10 11:45:00,
2013-02-10 06:50:00,62.6,57.4,30.18,ENE,73,0.0,0.0,83,0.00,,,0.00,Wunderground v.1.13,2013-02-10 11:50:00,
2013-02-10 06:55:00,62.6,57.4,30.18,ENE,73,0.0,0.0,83,0.00,,,0.00,Wunderground v.1.13,2013-02-10 11:55:00,
2013-02-10 07:00:00,62.7,57.5,30.18,ENE,72,0.0,1.0,83,0.00,,,0.00,Wunderground v.1.13,2013-02-10 12:00:00,
2013-02-10 07:05:00,62.8,57.6,30.18,ENE,71,0.0,1.0,83,0.00,,,0.00,Wunderground v.1.13,2013-02-10 12:05:00,
2013-02-10 07:10:00,62.8,57.6,30.19,ENE,71,0.0,0.0,83,0.00,,,0.00,Wunderground v.1.13,2013-02-10 12:10:00,
2013-02-10 07:16:00,62.9,57.7,30.19,ENE,71,0.0,0.0,83,0.00,,,0.00,Wunderground v.1.13,2013-02-10 12:16:00,
2013-02-10 07:21:00,63.0,57.8,30.19,ENE,71,0.0,0.0,83,0.00,,,0.00,Wunderground v.1.13,2013-02-10 12:21:00,
2013-02-10 07:26:00,63.1,57.9,30.19,ENE,76,0.0,0.0,83,0.00,,,0.00,Wunderground v.1.13,2013-02-10 12:26:00,
2013-02-10 07:31:00,63.2,57.6,30.19,ENE,74,1.0,1.0,82,0.00,,,0.00,Wunderground v.1.13,2013-02-10 12:31:00,
2013-02-10 07:36:00,63.4,57.8,30.19,ENE,74,0.0,1.0,82,0.00,,,0.00,Wunderground v.1.13,2013-02-10 12:36:00,
2013-02-10 07:41:00,63.5,57.6,30.19,ESE,105,2.0,3.0,81,0.00,,,0.00,Wunderground v.1.13,2013-02-10 12:41:00,
2013-02-10 07:47:00,63.6,57.7,30.20,ESE,106,3.0,4.0,81,0.00,,,0.00,Wunderground v.1.13,2013-02-10 12:47:00,
2013-02-10 07:52:00,63.7,57.8,30.20,East,82,0.0,2.0,81,0.00,,,0.00,Wunderground v.1.13,2013-02-10 12:52:00,
2013-02-10 07:57:00,63.8,57.9,30.20,East,82,0.0,1.0,81,0.00,,,0.00,Wunderground v.1.13,2013-02-10 12:57:00,
2013-02-10 08:02:00,64.0,58.1,30.20,East,94,0.0,0.0,81,0.00,,,0.00,Wunderground v.1.13,2013-02-10 13:02:00,
2013-02-10 08:07:00,64.2,58.2,30.19,South,169,2.0,6.0,81,0.00,,,0.00,Wunderground v.1.13,2013-02-10 13:07:00,
2013-02-10 08:12:00,64.3,58.0,30.20,SSE,167,1.0,6.0,80,0.00,,,0.00,Wunderground v.1.13,2013-02-10 13:12:00,
2013-02-10 08:17:00,64.4,58.1,30.20,SE,124,3.0,3.0,80,0.00,,,0.00,Wunderground v.1.13,2013-02-10 13:17:00,
2013-02-10 08:22:00,64.5,58.2,30.20,SE,138,2.0,5.0,80,0.00,,,0.00,Wunderground v.1.13,2013-02-10 13:22:00,
2013-02-10 08:27:00,64.7,58.4,30.20,ESE,117,2.0,5.0,80,0.00,,,0.00,Wunderground v.1.13,2013-02-10 13:27:00,
2013-02-10 08:33:00,64.8,58.5,30.20,East,99,0.0,4.0,80,0.00,,,0.00,Wunderground v.1.13,2013-02-10 13:33:00,
2013-02-10 08:38:00,65.1,58.4,30.21,ESE,114,0.0,4.0,79,0.00,,,0.00,Wunderground v.1.13,2013-02-10 13:38:00,
2013-02-10 08:43:00,65.2,58.5,30.21,ESE,115,2.0,6.0,79,0.00,,,0.00,Wunderground v.1.13,2013-02-10 13:43:00,
2013-02-10 08:48:00,65.3,58.6,30.21,East,81,0.0,5.0,79,0.00,,,0.00,Wunderground v.1.13,2013-02-10 13:48:00,
2013-02-10 08:53:00,65.4,58.7,30.22,East,88,4.0,4.0,79,0.00,,,0.00,Wunderground v.1.13,2013-02-10 13:53:00,
2013-02-10 08:58:00,65.4,58.7,30.22,SE,135,0.0,3.0,79,0.00,,,0.00,Wunderground v.1.13,2013-02-10 13:58:00,
2013-02-10 09:03:00,65.5,58.8,30.23,ENE,65,2.0,3.0,79,0.00,,,0.00,Wunderground v.1.13,2013-02-10 14:03:00,
2013-02-10 09:09:00,65.5,58.8,30.23,East,88,0.0,3.0,79,0.00,,,0.00,Wunderground v.1.13,2013-02-10 14:09:00,
2013-02-10 09:14:00,65.6,58.9,30.23,ENE,74,0.0,7.0,79,0.00,,,0.00,Wunderground v.1.13,2013-02-10 14:14:00,
2013-02-10 09:19:00,65.9,58.8,30.23,East,85,3.0,3.0,78,0.00,,,0.00,Wunderground v.1.13,2013-02-10 14:19:00,
2013-02-10 09:24:00,66.3,59.2,30.23,NE,46,0.0,5.0,78,0.00,,,0.00,Wunderground v.1.13,2013-02-10 14:24:00,
2013-02-10 09:29:00,66.6,59.2,30.23,ENE,64,2.0,3.0,77,0.00,,,0.00,Wunderground v.1.13,2013-02-10 14:29:00,
2013-02-10 09:34:00,67.1,59.6,30.23,ENE,76,0.0,5.0,77,0.00,,,0.00,Wunderground v.1.13,2013-02-10 14:34:00,
2013-02-10 09:39:00,67.7,59.9,30.23,ENE,78,0.0,3.0,76,0.00,,,0.00,Wunderground v.1.13,2013-02-10 14:39:00,
2013-02-10 09:45:00,68.1,59.9,30.23,ENE,61,0.0,2.0,75,0.00,,,0.00,Wunderground v.1.13,2013-02-10 14:45:00,
2013-02-10 09:50:00,68.4,59.8,30.23,ESE,121,3.0,3.0,74,0.00,,,0.00,Wunderground v.1.13,2013-02-10 14:50:00,
2013-02-10 09:55:00,69.0,60.4,30.23,ENE,68,7.0,7.0,74,0.00,,,0.00,Wunderground v.1.13,2013-02-10 14:55:00,
2013-02-10 10:00:00,69.4,60.0,30.23,ESE,120,2.0,3.0,72,0.00,,,0.00,Wunderground v.1.13,2013-02-10 15:00:00,
2013-02-10 10:05:00,69.9,60.1,30.24,ESE,105,6.0,6.0,71,0.00,,,0.00,Wunderground v.1.13,2013-02-10 15:05:00,
2013-02-10 10:11:00,70.2,60.4,30.24,NE,38,7.0,7.0,71,0.00,,,0.00,Wunderground v.1.13,2013-02-10 15:11:00,
2013-02-10 10:16:00,70.6,60.3,30.24,ENE,61,3.0,10.0,70,0.00,,,0.00,Wunderground v.1.13,2013-02-10 15:16:00,
2013-02-10 10:21:00,71.2,60.9,30.24,ESE,122,0.0,3.0,70,0.00,,,0.00,Wunderground v.1.13,2013-02-10 15:21:00,
2013-02-10 10:26:00,71.7,61.0,30.24,ESE,104,5.0,5.0,69,0.00,,,0.00,Wunderground v.1.13,2013-02-10 15:26:00,
2013-02-10 10:31:00,72.0,60.9,30.24,East,80,4.0,11.0,68,0.00,,,0.00,Wunderground v.1.13,2013-02-10 15:31:00,
2013-02-10 10:37:00,72.3,61.6,30.23,East,96,2.0,4.0,69,0.00,,,0.00,Wunderground v.1.13,2013-02-10 15:37:00,
2013-02-10 10:42:00,72.7,61.5,30.23,SSE,160,3.0,3.0,68,0.00,,,0.00,Wunderground v.1.13,2013-02-10 15:42:00,
2013-02-10 10:47:00,73.2,61.6,30.23,SSE,147,5.0,6.0,67,0.00,,,0.00,Wunderground v.1.13,2013-02-10 15:47:00,
2013-02-10 10:52:00,73.3,61.7,30.23,SSW,207,3.0,6.0,67,0.00,,,0.00,Wunderground v.1.13,2013-02-10 15:52:00,
2013-02-10 10:57:00,73.7,61.6,30.23,SSE,153,5.0,6.0,66,0.00,,,0.00,Wunderground v.1.13,2013-02-10 15:57:00,
2013-02-10 11:03:00,73.9,61.8,30.23,ENE,58,3.0,10.0,66,0.00,,,0.00,Wunderground v.1.13,2013-02-10 16:03:00,
2013-02-10 11:08:00,74.0,61.5,30.23,SE,140,5.0,5.0,65,0.00,,,0.00,Wunderground v.1.13,2013-02-10 16:08:00,
2013-02-10 11:13:00,74.4,61.9,30.23,ESE,122,4.0,9.0,65,0.00,,,0.00,Wunderground v.1.13,2013-02-10 16:13:00,
2013-02-10 11:18:00,74.9,61.9,30.23,South,180,3.0,7.0,64,0.00,,,0.00,Wunderground v.1.13,2013-02-10 16:18:00,
2013-02-10 11:23:00,74.9,61.9,30.22,South,182,5.0,6.0,64,0.00,,,0.00,Wunderground v.1.13,2013-02-10 16:23:00,
2013-02-10 11:28:00,75.2,62.2,30.22,SSE,157,3.0,7.0,64,0.00,,,0.00,Wunderground v.1.13,2013-02-10 16:28:00,
2013-02-10 11:33:00,76.0,62.5,30.22,ENE,64,3.0,4.0,63,0.00,,,0.00,Wunderground v.1.13,2013-02-10 16:33:00,
2013-02-10 11:38:00,76.6,62.6,30.22,SE,140,3.0,5.0,62,0.00,,,0.00,Wunderground v.1.13,2013-02-10 16:38:00,
2013-02-10 11:44:00,76.6,62.6,30.22,ESE,105,3.0,4.0,62,0.00,,,0.00,Wunderground v.1.13,2013-02-10 16:44:00,
2013-02-10 11:49:00,76.6,62.6,30.22,East,90,4.0,5.0,62,0.00,,,0.00,Wunderground v.1.13,2013-02-10 16:49:00,
2013-02-10 11:54:00,76.6,62.1,30.22,East,86,3.0,6.0,61,0.00,,,0.00,Wunderground v.1.13,2013-02-10 16:54:00,
2013-02-10 11:59:00,76.7,62.2,30.22,ESE,106,2.0,12.0,61,0.00,,,0.00,Wunderground v.1.13,2013-02-10 16:59:00,
2013-02-10 12:04:00,77.1,62.6,30.22,South,186,4.0,6.0,61,0.00,,,0.00,Wunderground v.1.13,2013-02-10 17:04:00,
2013-02-10 12:09:00,77.9,62.9,30.21,ESE,123,4.0,6.0,60,0.00,,,0.00,Wunderground v.1.13,2013-02-10 17:09:00,
2013-02-10 12:14:00,77.7,62.2,30.21,SE,124,3.0,7.0,59,0.00,,,0.00,Wunderground v.1.13,2013-02-10 17:14:00,
2013-02-10 12:19:00,77.7,62.7,30.20,SE,140,3.0,8.0,60,0.00,,,0.00,Wunderground v.1.13,2013-02-10 17:19:00,
2013-02-10 12:25:00,77.9,62.4,30.20,SE,146,7.0,7.0,59,0.00,,,0.00,Wunderground v.1.13,2013-02-10 17:25:00,
2013-02-10 12:30:00,78.0,62.5,30.20,East,92,4.0,4.0,59,0.00,,,0.00,Wunderground v.1.13,2013-02-10 17:30:00,
2013-02-10 12:35:00,78.4,62.4,30.19,ENE,74,3.0,4.0,58,0.00,,,0.00,Wunderground v.1.13,2013-02-10 17:35:00,
2013-02-10 12:40:00,78.7,62.7,30.19,South,180,4.0,4.0,58,0.00,,,0.00,Wunderground v.1.13,2013-02-10 17:40:00,
2013-02-10 12:45:00,78.9,62.4,30.19,East,82,0.0,3.0,57,0.00,,,0.00,Wunderground v.1.13,2013-02-10 17:45:00,
2013-02-10 12:50:00,79.1,62.6,30.18,East,90,4.0,4.0,57,0.00,,,0.00,Wunderground v.1.13,2013-02-10 17:50:00,
2013-02-10 12:55:00,78.7,62.2,30.18,East,84,1.0,3.0,57,0.00,,,0.00,Wunderground v.1.13,2013-02-10 17:55:00,
2013-02-10 13:00:00,79.1,62.6,30.18,ESE,109,2.0,3.0,57,0.00,,,0.00,Wunderground v.1.13,2013-02-10 18:00:00,
2013-02-10 13:05:00,79.4,62.3,30.18,SSE,167,5.0,5.0,56,0.00,,,0.00,Wunderground v.1.13,2013-02-10 18:05:00,
2013-02-10 13:10:00,80.0,62.9,30.18,NNE,16,2.0,6.0,56,0.00,,,0.00,Wunderground v.1.13,2013-02-10 18:10:00,
2013-02-10 13:15:00,80.0,62.4,30.17,East,86,0.0,4.0,55,0.00,,,0.00,Wunderground v.1.13,2013-02-10 18:15:00,
2013-02-10 13:21:00,79.4,62.3,30.17,SE,139,3.0,3.0,56,0.00,,,0.00,Wunderground v.1.13,2013-02-10 18:21:00,
2013-02-10 13:26:00,79.4,62.3,30.17,East,89,4.0,4.0,56,0.00,,,0.00,Wunderground v.1.13,2013-02-10 18:26:00,
2013-02-10 13:31:00,79.5,62.4,30.16,NE,53,0.0,3.0,56,0.00,,,0.00,Wunderground v.1.13,2013-02-10 18:31:00,
2013-02-10 13:36:00,79.8,62.7,30.16,SSE,150,1.0,5.0,56,0.00,,,0.00,Wunderground v.1.13,2013-02-10 18:36:00,
2013-02-10 13:41:00,80.3,62.7,30.16,SE,134,5.0,6.0,55,0.00,,,0.00,Wunderground v.1.13,2013-02-10 18:41:00,
2013-02-10 13:46:00,81.0,62.8,30.15,SSE,153,3.0,5.0,54,0.00,,,0.00,Wunderground v.1.13,2013-02-10 18:46:00,
2013-02-10 13:52:00,80.9,62.2,30.15,SE,143,7.0,7.0,53,0.00,,,0.00,Wunderground v.1.13,2013-02-10 18:52:00,
2013-02-10 13:57:00,80.9,62.7,30.15,SE,137,2.0,4.0,54,0.00,,,0.00,Wunderground v.1.13,2013-02-10 18:57:00,
2013-02-10 14:02:00,80.8,62.1,30.15,ENE,74,0.0,6.0,53,0.00,,,0.00,Wunderground v.1.13,2013-02-10 19:02:00,
2013-02-10 14:07:00,80.9,62.2,30.14,SSE,163,1.0,11.0,53,0.00,,,0.00,Wunderground v.1.13,2013-02-10 19:07:00,
2013-02-10 14:12:00,80.9,62.2,30.14,East,94,3.0,11.0,53,0.00,,,0.00,Wunderground v.1.13,2013-02-10 19:12:00,
2013-02-10 14:17:00,81.1,62.3,30.14,SSE,155,4.0,4.0,53,0.00,,,0.00,Wunderground v.1.13,2013-02-10 19:17:00,
2013-02-10 14:23:00,81.6,62.3,30.14,ESE,122,2.0,7.0,52,0.00,,,0.00,Wunderground v.1.13,2013-02-10 19:23:00,
2013-02-10 14:28:00,81.7,62.4,30.14,NE,51,3.0,5.0,52,0.00,,,0.00,Wunderground v.1.13,2013-02-10 19:28:00,
2013-02-10 14:33:00,81.2,61.9,30.13,East,82,3.0,5.0,52,0.00,,,0.00,Wunderground v.1.13,2013-02-10 19:33:00,
2013-02-10 14:38:00,81.4,62.1,30.13,East,100,2.0,5.0,52,0.00,,,0.00,Wunderground v.1.13,2013-02-10 19:38:00,
2013-02-10 14:43:00,81.1,61.8,30.13,East,83,2.0,3.0,52,0.00,,,0.00,Wunderground v.1.13,2013-02-10 19:43:00,
2013-02-10 14:48:00,81.2,61.9,30.13,SE,128,4.0,6.0,52,0.00,,,0.00,Wunderground v.1.13,2013-02-10 19:48:00,
2013-02-10 14:54:00,80.4,61.7,30.13,SSE,157,3.0,12.0,53,0.00,,,0.00,Wunderground v.1.13,2013-02-10 19:54:00,
2013-02-10 14:59:00,80.7,62.0,30.13,ESE,117,1.0,5.0,53,0.00,,,0.00,Wunderground v.1.13,2013-02-10 19:59:00,
2013-02-10 15:04:00,81.2,61.9,30.13,SE,126,2.0,6.0,52,0.00,,,0.00,Wunderground v.1.13,2013-02-10 20:04:00,
2013-02-10 15:09:00,81.9,61.4,30.13,SE,142,4.0,6.0,50,0.00,,,0.00,Wunderground v.1.13,2013-02-10 20:09:00,
2013-02-10 15:14:00,81.7,61.2,30.12,ESE,122,0.0,9.0,50,0.00,,,0.00,Wunderground v.1.13,2013-02-10 20:14:00,
2013-02-10 15:19:00,81.7,61.2,30.12,East,80,0.0,3.0,50,0.00,,,0.00,Wunderground v.1.13,2013-02-10 20:19:00,
2013-02-10 15:24:00,81.8,61.3,30.12,South,178,3.0,4.0,50,0.00,,,0.00,Wunderground v.1.13,2013-02-10 20:24:00,
2013-02-10 15:29:00,82.2,61.1,30.12,SSE,163,3.0,3.0,49,0.00,,,0.00,Wunderground v.1.13,2013-02-10 20:29:00,
2013-02-10 15:34:00,82.2,60.6,30.12,ENE,72,0.0,2.0,48,0.00,,,0.00,Wunderground v.1.13,2013-02-10 20:34:00,
2013-02-10 15:39:00,82.3,61.2,30.12,SSE,149,0.0,2.0,49,0.00,,,0.00,Wunderground v.1.13,2013-02-10 20:39:00,
2013-02-10 15:45:00,82.1,61.0,30.12,SSE,150,0.0,1.0,49,0.00,,,0.00,Wunderground v.1.13,2013-02-10 20:45:00,
2013-02-10 15:50:00,81.3,60.9,30.12,SSE,148,0.0,0.0,50,0.00,,,0.00,Wunderground v.1.13,2013-02-10 20:50:00,
2013-02-10 15:55:00,80.9,60.5,30.12,SE,143,1.0,3.0,50,0.00,,,0.00,Wunderground v.1.13,2013-02-10 20:55:00,
2013-02-10 16:00:00,80.7,60.3,30.12,SSE,152,0.0,2.0,50,0.00,,,0.00,Wunderground v.1.13,2013-02-10 21:00:00,
2013-02-10 16:05:00,80.3,60.0,30.12,South,173,2.0,5.0,50,0.00,,,0.00,Wunderground v.1.13,2013-02-10 21:05:00,
2013-02-10 16:10:00,80.0,60.2,30.12,SSE,157,1.0,2.0,51,0.00,,,0.00,Wunderground v.1.13,2013-02-10 21:10:00,
2013-02-10 16:15:00,79.8,60.1,30.12,SE,144,2.0,3.0,51,0.00,,,0.00,Wunderground v.1.13,2013-02-10 21:15:00,
2013-02-10 16:20:00,79.6,59.9,30.12,SE,144,2.0,4.0,51,0.00,,,0.00,Wunderground v.1.13,2013-02-10 21:20:00,
2013-02-10 16:25:00,79.3,60.1,30.12,SE,144,0.0,2.0,52,0.00,,,0.00,Wunderground v.1.13,2013-02-10 21:25:00,
2013-02-10 16:30:00,79.4,60.2,30.12,SE,144,0.0,1.0,52,0.00,,,0.00,Wunderground v.1.13,2013-02-10 21:30:00,
2013-02-10 16:35:00,79.5,60.3,30.13,SE,144,0.0,0.0,52,0.00,,,0.00,Wunderground v.1.13,2013-02-10 21:35:00,
2013-02-10 16:40:00,79.5,60.3,30.13,SE,145,1.0,4.0,52,0.00,,,0.00,Wunderground v.1.13,2013-02-10 21:40:00,
2013-02-10 16:45:00,78.9,60.8,30.13,SSE,150,0.0,1.0,54,0.00,,,0.00,Wunderground v.1.13,2013-02-10 21:45:00,
2013-02-10 16:51:00,78.7,60.7,30.13,SSE,149,2.0,4.0,54,0.00,,,0.00,Wunderground v.1.13,2013-02-10 21:51:00,
2013-02-10 16:56:00,78.6,60.6,30.13,SSE,149,0.0,1.0,54,0.00,,,0.00,Wunderground v.1.13,2013-02-10 21:56:00,
2013-02-10 17:01:00,78.7,60.7,30.13,ESE,105,1.0,1.0,54,0.00,,,0.00,Wunderground v.1.13,2013-02-10 22:01:00,
2013-02-10 17:06:00,78.7,60.7,30.13,ESE,105,0.0,0.0,54,0.00,,,0.00,Wunderground v.1.13,2013-02-10 22:06:00,
2013-02-10 17:11:00,78.9,61.4,30.13,SE,130,0.0,1.0,55,0.00,,,0.00,Wunderground v.1.13,2013-02-10 22:11:00,
2013-02-10 17:16:00,78.7,61.7,30.13,SE,135,0.0,1.0,56,0.00,,,0.00,Wunderground v.1.13,2013-02-10 22:16:00,
2013-02-10 17:21:00,78.7,62.2,30.13,SE,144,0.0,2.0,57,0.00,,,0.00,Wunderground v.1.13,2013-02-10 22:21:00,
2013-02-10 17:26:00,78.4,61.9,30.13,SSE,152,3.0,3.0,57,0.00,,,0.00,Wunderground v.1.13,2013-02-10 22:26:00,
2013-02-10 17:32:00,78.1,62.1,30.13,South,180,4.0,5.0,58,0.00,,,0.00,Wunderground v.1.13,2013-02-10 22:32:00,
2013-02-10 17:37:00,77.8,61.8,30.13,South,184,2.0,4.0,58,0.00,,,0.00,Wunderground v.1.13,2013-02-10 22:37:00,
2013-02-10 17:42:00,77.4,61.9,30.13,SSW,212,4.0,5.0,59,0.00,,,0.00,Wunderground v.1.13,2013-02-10 22:42:00,
2013-02-10 17:47:00,77.0,62.0,30.13,SSW,212,4.0,4.0,60,0.00,,,0.00,Wunderground v.1.13,2013-02-10 22:47:00,
2013-02-10 17:52:00,76.6,61.7,30.13,SSW,211,3.0,3.0,60,0.00,,,0.00,Wunderground v.1.13,2013-02-10 22:52:00,
2013-02-10 17:57:00,76.0,61.6,30.13,SW,226,4.0,6.0,61,0.00,,,0.00,Wunderground v.1.13,2013-02-10 22:57:00,
2013-02-10 18:02:00,75.5,61.1,30.13,SSW,210,2.0,6.0,61,0.00,,,0.00,Wunderground v.1.13,2013-02-10 23:02:00,
2013-02-10 18:08:00,75.1,61.2,30.13,SSW,208,2.0,4.0,62,0.00,,,0.00,Wunderground v.1.13,2013-02-10 23:08:00,
2013-02-10 18:13:00,74.8,61.4,30.13,SSW,207,0.0,3.0,63,0.00,,,0.00,Wunderground v.1.13,2013-02-10 23:13:00,
2013-02-10 18:18:00,74.5,61.1,30.14,SSW,207,0.0,3.0,63,0.00,,,0.00,Wunderground v.1.13,2013-02-10 23:18:00,
2013-02-10 18:23:00,74.2,61.2,30.14,SSW,207,0.0,1.0,64,0.00,,,0.00,Wunderground v.1.13,2013-02-10 23:23:00,
2013-02-10 18:28:00,74.0,61.5,30.14,SSW,207,0.0,0.0,65,0.00,,,0.00,Wunderground v.1.13,2013-02-10 23:28:00,
2013-02-10 18:33:00,73.8,61.3,30.14,SSW,207,0.0,1.0,65,0.00,,,0.00,Wunderground v.1.13,2013-02-10 23:33:00,
2013-02-10 18:38:00,73.6,61.5,30.14,SSW,207,0.0,2.0,66,0.00,,,0.00,Wunderground v.1.13,2013-02-10 23:38:00,
2013-02-10 18:43:00,73.4,61.3,30.14,SSW,207,0.0,4.0,66,0.00,,,0.00,Wunderground v.1.13,2013-02-10 23:43:00,
2013-02-10 18:48:00,73.4,61.3,30.15,SSW,207,0.0,1.0,66,0.00,,,0.00,Wunderground v.1.13,2013-02-10 23:48:00,
2013-02-10 18:53:00,73.3,61.7,30.15,SSW,207,0.0,1.0,67,0.00,,,0.00,Wunderground v.1.13,2013-02-10 23:53:00,
2013-02-10 18:58:00,73.1,61.5,30.15,SSW,207,0.0,0.0,67,0.00,,,0.00,Wunderground v.1.13,2013-02-10 23:58:00,
2013-02-10 19:04:00,73.0,61.8,30.15,SSW,207,0.0,0.0,68,0.00,,,0.00,Wunderground v.1.13,2013-02-11 00:04:00,
2013-02-10 19:09:00,72.9,61.7,30.15,SSW,207,0.0,0.0,68,0.00,,,0.00,Wunderground v.1.13,2013-02-11 00:09:00,
2013-02-10 19:14:00,72.8,61.6,30.15,SSW,207,0.0,3.0,68,0.00,,,0.00,Wunderground v.1.13,2013-02-11 00:14:00,
2013-02-10 19:19:00,72.6,61.8,30.16,SSW,207,0.0,0.0,69,0.00,,,0.00,Wunderground v.1.13,2013-02-11 00:19:00,
2013-02-10 19:24:00,72.5,61.7,30.16,SSW,207,0.0,0.0,69,0.00,,,0.00,Wunderground v.1.13,2013-02-11 00:24:00,
2013-02-10 19:29:00,72.3,62.0,30.16,SSW,207,0.0,0.0,70,0.00,,,0.00,Wunderground v.1.13,2013-02-11 00:29:00,
2013-02-10 19:34:00,72.1,61.8,30.16,SSW,207,0.0,0.0,70,0.00,,,0.00,Wunderground v.1.13,2013-02-11 00:34:00,
2013-02-10 19:39:00,72.0,62.1,30.16,SSW,207,0.0,0.0,71,0.00,,,0.00,Wunderground v.1.13,2013-02-11 00:39:00,
2013-02-10 19:44:00,71.8,61.9,30.16,SSW,207,0.0,0.0,71,0.00,,,0.00,Wunderground v.1.13,2013-02-11 00:44:00,
2013-02-10 19:49:00,71.6,62.1,30.16,SSW,207,0.0,0.0,72,0.00,,,0.00,Wunderground v.1.13,2013-02-11 00:49:00,
2013-02-10 19:55:00,71.5,62.0,30.16,SSW,207,0.0,0.0,72,0.00,,,0.00,Wunderground v.1.13,2013-02-11 00:55:00,
2013-02-10 20:00:00,71.4,62.3,30.16,SSW,207,0.0,0.0,73,0.00,,,0.00,Wunderground v.1.13,2013-02-11 01:00:00,
2013-02-10 20:05:00,71.3,62.2,30.16,SSW,207,2.0,2.0,73,0.00,,,0.00,Wunderground v.1.13,2013-02-11 01:05:00,
2013-02-10 20:10:00,71.3,62.2,30.16,SSW,207,0.0,1.0,73,0.00,,,0.00,Wunderground v.1.13,2013-02-11 01:10:00,
2013-02-10 20:15:00,71.3,62.2,30.17,SSE,160,0.0,4.0,73,0.00,,,0.00,Wunderground v.1.13,2013-02-11 01:15:00,
2013-02-10 20:20:00,71.3,61.8,30.17,SSE,160,0.0,2.0,72,0.00,,,0.00,Wunderground v.1.13,2013-02-11 01:20:00,
2013-02-10 20:25:00,71.3,61.8,30.17,SSE,163,4.0,4.0,72,0.00,,,0.00,Wunderground v.1.13,2013-02-11 01:25:00,
2013-02-10 20:30:00,71.3,61.8,30.17,SSE,153,4.0,4.0,72,0.00,,,0.00,Wunderground v.1.13,2013-02-11 01:30:00,
2013-02-10 20:35:00,71.2,61.3,30.17,SSE,157,0.0,3.0,71,0.00,,,0.00,Wunderground v.1.13,2013-02-11 01:35:00,
2013-02-10 20:41:00,71.0,60.7,30.18,South,169,1.0,4.0,70,0.00,,,0.00,Wunderground v.1.13,2013-02-11 01:41:00,
2013-02-10 20:46:00,71.1,60.8,30.18,SSE,150,2.0,4.0,70,0.00,,,0.00,Wunderground v.1.13,2013-02-11 01:46:00,
2013-02-10 20:51:00,71.2,60.9,30.18,SSE,159,1.0,7.0,70,0.00,,,0.00,Wunderground v.1.13,2013-02-11 01:51:00,
2013-02-10 20:56:00,71.2,60.9,30.18,SE,142,3.0,4.0,70,0.00,,,0.00,Wunderground v.1.13,2013-02-11 01:56:00,
2013-02-10 21:01:00,71.0,60.7,30.18,SSE,165,3.0,6.0,70,0.00,,,0.00,Wunderground v.1.13,2013-02-11 02:01:00,
2013-02-10 21:07:00,70.8,60.5,30.18,SSE,155,1.0,5.0,70,0.00,,,0.00,Wunderground v.1.13,2013-02-11 02:07:00,
2013-02-10 21:12:00,70.6,60.7,30.18,SSE,155,0.0,6.0,71,0.00,,,0.00,Wunderground v.1.13,2013-02-11 02:12:00,
2013-02-10 21:17:00,70.5,60.6,30.18,SSE,168,0.0,4.0,71,0.00,,,0.00,Wunderground v.1.13,2013-02-11 02:17:00,
2013-02-10 21:22:00,70.3,60.4,30.18,SE,144,1.0,4.0,71,0.00,,,0.00,Wunderground v.1.13,2013-02-11 02:22:00,
2013-02-10 21:27:00,70.1,60.3,30.18,SE,146,1.0,3.0,71,0.00,,,0.00,Wunderground v.1.13,2013-02-11 02:27:00,
2013-02-10 21:32:00,69.9,60.5,30.18,SSE,157,0.0,4.0,72,0.00,,,0.00,Wunderground v.1.13,2013-02-11 02:32:00,
2013-02-10 21:38:00,69.8,60.4,30.18,ESE,114,2.0,6.0,72,0.00,,,0.00,Wunderground v.1.13,2013-02-11 02:38:00,
2013-02-10 21:43:00,69.7,60.7,30.18,SSE,150,0.0,6.0,73,0.00,,,0.00,Wunderground v.1.13,2013-02-11 02:43:00,
2013-02-10 21:48:00,69.5,60.5,30.18,East,86,0.0,2.0,73,0.00,,,0.00,Wunderground v.1.13,2013-02-11 02:48:00,
2013-02-10 21:53:00,69.4,60.4,30.18,SSE,164,2.0,9.0,73,0.00,,,0.00,Wunderground v.1.13,2013-02-11 02:53:00,
2013-02-10 21:59:00,69.3,60.3,30.18,SSE,161,0.0,5.0,73,0.00,,,0.00,Wunderground v.1.13,2013-02-11 02:59:00,
2013-02-10 22:04:00,69.3,60.3,30.18,SSE,159,0.0,3.0,73,0.00,,,0.00,Wunderground v.1.13,2013-02-11 03:04:00,
2013-02-10 22:09:00,69.3,60.3,30.18,SE,141,3.0,5.0,73,0.00,,,0.00,Wunderground v.1.13,2013-02-11 03:09:00,
2013-02-10 22:14:00,69.3,60.3,30.18,SSE,149,0.0,6.0,73,0.00,,,0.00,Wunderground v.1.13,2013-02-11 03:14:00,
2013-02-10 22:19:00,69.3,60.3,30.18,SSE,149,4.0,4.0,73,0.00,,,0.00,Wunderground v.1.13,2013-02-11 03:19:00,
2013-02-10 22:24:00,69.3,60.3,30.18,SE,144,0.0,5.0,73,0.00,,,0.00,Wunderground v.1.13,2013-02-11 03:24:00,
2013-02-10 22:29:00,69.2,60.2,30.18,SSE,157,4.0,4.0,73,0.00,,,0.00,Wunderground v.1.13,2013-02-11 03:29:00,
2013-02-10 22:34:00,69.2,60.6,30.18,SSE,163,0.0,3.0,74,0.00,,,0.00,Wunderground v.1.13,2013-02-11 03:34:00,
2013-02-10 22:39:00,69.1,60.5,30.18,SSE,156,0.0,2.0,74,0.00,,,0.00,Wunderground v.1.13,2013-02-11 03:39:00,
2013-02-10 22:45:00,69.0,60.4,30.18,ESE,116,0.0,1.0,74,0.00,,,0.00,Wunderground v.1.13,2013-02-11 03:45:00,
2013-02-10 22:50:00,68.9,60.3,30.18,ESE,117,0.0,0.0,74,0.00,,,0.00,Wunderground v.1.13,2013-02-11 03:50:00,
2013-02-10 22:55:00,68.7,60.1,30.18,SE,146,0.0,1.0,74,0.00,,,0.00,Wunderground v.1.13,2013-02-11 03:55:00,
2013-02-10 23:00:00,68.5,60.3,30.18,SSE,162,0.0,1.0,75,0.00,,,0.00,Wunderground v.1.13,2013-02-11 04:00:00,
2013-02-10 23:05:00,68.3,60.1,30.17,SSE,157,0.0,1.0,75,0.00,,,0.00,Wunderground v.1.13,2013-02-11 04:05:00,
2013-02-10 23:10:00,68.1,60.2,30.17,SSE,157,0.0,3.0,76,0.00,,,0.00,Wunderground v.1.13,2013-02-11 04:10:00,
2013-02-10 23:15:00,67.9,60.1,30.18,SSE,157,0.0,0.0,76,0.00,,,0.00,Wunderground v.1.13,2013-02-11 04:15:00,
2013-02-10 23:20:00,67.8,60.0,30.17,SSE,157,0.0,1.0,76,0.00,,,0.00,Wunderground v.1.13,2013-02-11 04:20:00,
2013-02-10 23:26:00,67.7,60.2,30.17,SSE,157,2.0,3.0,77,0.00,,,0.00,Wunderground v.1.13,2013-02-11 04:26:00,
2013-02-10 23:31:00,67.6,60.1,30.17,SSE,157,2.0,6.0,77,0.00,,,0.00,Wunderground v.1.13,2013-02-11 04:31:00,
2013-02-10 23:36:00,67.4,60.3,30.17,SSE,157,0.0,1.0,78,0.00,,,0.00,Wunderground v.1.13,2013-02-11 04:36:00,
2013-02-10 23:41:00,67.3,60.2,30.17,SSE,152,1.0,3.0,78,0.00,,,0.00,Wunderground v.1.13,2013-02-11 04:41:00,
2013-02-10 23:46:00,67.2,60.1,30.17,SSE,152,0.0,3.0,78,0.00,,,0.00,Wunderground v.1.13,2013-02-11 04:46:00,
2013-02-10 23:51:00,67.1,60.0,30.17,SE,138,0.0,2.0,78,0.00,,,0.00,Wunderground v.1.13,2013-02-11 04:51:00,
2013-02-10 23:57:00,67.0,60.3,30.17,SSE,149,2.0,8.0,79,0.00,,,0.00,Wunderground v.1.13,2013-02-11 04:57:00,